www.pogodaiklimat.ru

Погода и климат >> Архив погоды >> Германия >> Leuchtturm Kiel


ПОГОДА в Leuchtturm Kiel

  • Прогноз погоды в Leuchtturm Kiel
  • Монитор погоды в Leuchtturm Kiel
  • Климат города

АРХИВ ПОГОДЫ в Leuchtturm Kiel

Время (UTC), дата Ветер
(напр.,м/с)
 
Видим.   Явления Облачность Т
(С)
Тd
(С)
f
(%)
Тe
(С)
Тes
(С)
Комфортность P
(гПа)
Po
(гПа)
Тmin
(С)
Tmax
(С)
R
(мм)
R24
(мм)
S
(см)
22 17.05 ЮВ 10 н/о н/о +19.6 +13.7 69 +20 +20 1014.7 1011.6
23 17.05 ЮВ 11 н/о н/о +18.5 +13.3 72 +18 +18 1013.9 1010.9
00 18.05 ЮВ 9
{13}
н/о н/о +18.8 +12.8 68 +19 +19 1013.4 1010.4
01 18.05 ЮВ 8 н/о н/о +17.8 +12.4 71 +17 +17 1012.7 1009.6
02 18.05 ЮВ 8 н/о н/о +17.5 +12.4 72 +16 +16 1011.9 1008.8
03 18.05 ЮВ 9
{13}
н/о н/о +18.8 +12.8 68 +19 +19 1013.4 1010.4
04 18.05 ЮВ 9 н/о н/о +16.6 +11.9 74 +15 +15 1010.6 1007.5
05 18.05 ЮВ 10 н/о н/о +17.5 +12.5 72 +16 +16 1010.1 1007.0
06 18.05 ЮВ 11 н/о н/о +17.5 +12.2 71 +16 +16 1011.0 1007.9
07 18.05 Ю 10 н/о н/о +19.0 +12.8 67 +19 +19 1009.5 1006.5
08 18.05 Ю 9 н/о н/о +20.8 +13.5 63 +23 +23 комфорт 1009.6 1006.5
09 18.05 Ю 9 н/о н/о +21.9 +13.9 60 +25 +25 комфорт 1009.5 1006.5
10 18.05 Ю 8 н/о н/о +23.0 +13.6 55 +26 +26 жарко 1009.9 1006.9
11 18.05 ЮЗ 6 н/о н/о +20.7 +12.5 59 +23 +23 комфорт 1010.4 1007.4
12 18.05 З 6 н/о н/о +22.1 +14.6 62 +25 +25 комфорт 1010.5 1007.4
13 18.05 З 12
{13}
н/о н/о +21.0 +14.4 66 +23 +23 комфорт 1010.7 1007.6
14 18.05 З 10
{13}
н/о н/о +18.8 +13.6 72 +19 +19 1011.3 1008.2
15 18.05 З 7
{13}
н/о н/о +16.8 +13.0 78 +16 +16 1011.5 1008.4
16 18.05 З 7 н/о н/о +17.6 +13.9 79 +17 +17 1011.6 1008.6
17 18.05 З 7 н/о н/о +17.0 +12.4 74 +16 +16 1011.7 1008.7
18 18.05 З 5
{13}
н/о н/о +16.6 +12.8 78 +16 +16 1011.8 1008.7 +15.5 +23.5
19 18.05 СЗ 3 н/о н/о +15.0 +12.5 85 +14 +14 1011.7 1008.6
20 18.05 Ю 2 н/о н/о +14.8 +12.6 87 +14 +14 1012.7 1009.6
21 18.05 С 4 н/о н/о +13.8 +12.4 91 +12 +12 1012.2 1009.0
22 18.05 С 4 н/о н/о +13.1 +12.2 94 +11 +11 1011.7 1008.6
23 18.05 С 4 н/о н/о +12.8 +12.2 96 +11 +11 1011.2 1008.1
00 19.05 С 5 н/о н/о +12.4 +11.9 97 +10 +10 1010.8 1007.7
01 19.05 С 4 н/о н/о +12.2 +11.7 97 +10 +10 1010.8 1007.6
02 19.05 СЗ 5 н/о н/о +12.0 +11.5 97 +9 +9 1010.8 1007.7
03 19.05 С 4 н/о н/о +12.1 +11.7 97 +10 +10 1010.8 1007.6
04 19.05 СВ 4 н/о н/о +12.3 +12.0 98 +10 +10 1010.4 1007.2
05 19.05 СВ 4 н/о н/о +12.8 +12.6 99 +11 +11 1010.3 1007.2
06 19.05 В 3 н/о н/о +12.6 +12.6 100 +11 +11 1010.5 1007.4 +12.0 +17.2
07 19.05 В 5 н/о н/о +12.2 +12.0 99 +10 +10 1010.4 1007.2
08 19.05 СВ 2 н/о н/о +11.8 +11.6 99 +11 +11 1009.8 1006.7
09 19.05 СВ 3 н/о н/о +11.7 +11.6 99 +10 +10 1010.0 1006.8
10 19.05 В 4 н/о н/о +11.6 +11.6 100 +9 +9 1010.2 1007.0
11 19.05 СВ 2 н/о н/о +12.1 +11.9 99 +11 +11 1010.1 1007.0
12 19.05 СВ 3 н/о н/о +12.5 +12.5 100 +11 +11 1010.1 1006.9
13 19.05 С 4 н/о н/о +13.6 +13.5 99 +12 +12 1010.1 1007.0
14 19.05 СВ 5 н/о н/о +14.6 +14.1 97 +13 +13 1009.8 1006.7
15 19.05 СЗ 2 н/о н/о +14.4 +13.5 94 +14 +14 1010.2 1007.1
16 19.05 СЗ 3 н/о н/о +15.1 +14.3 95 +14 +14 1009.6 1006.5
17 19.05 С 4 н/о н/о +15.5 +14.4 93 +14 +14 1009.5 1006.4
18 19.05 СЗ 5 н/о н/о +17.2 +14.8 86 +17 +17 1009.6 1006.6 +11.5 +17.2
19 19.05 СЗ 7 н/о н/о +15.8 +14.1 90 +14 +14 1009.6 1006.5
20 19.05 З 9 н/о н/о +13.9 +11.5 85 +11 +11 1010.3 1007.2
21 19.05 СЗ 11 н/о н/о +13.5 +10.7 83 +10 +10 1010.5 1007.4
22 19.05 З 14
{15}
н/о н/о +12.5 +9.9 84 +8 +8 1011.7 1008.6
23 19.05 З 12
{16}
н/о н/о +11.9 +10.1 89 +8 +8 1011.7 1008.6
00 20.05 З 12
{16}
н/о н/о +11.4 +10.5 94 +7 +7 1010.6 1007.5
01 20.05 З 9
{14}
н/о н/о +11.6 +10.3 92 +8 +8 1011.7 1008.5
02 20.05 З 11
{13}
н/о н/о +11.4 +10.0 91 +7 +7 1012.3 1009.1
03 20.05 З 9
{14}
н/о н/о +11.2 +9.5 89 +7 +7 1012.6 1009.5
04 20.05 З 10
{13}
н/о н/о +11.4 +9.3 87 +7 +7 1013.8 1010.6
05 20.05 З 10
{14}
н/о н/о +11.0 +9.3 89 +7 +7 1014.2 1011.0
06 20.05 З 9
{14}
н/о н/о +11.1 +9.4 89 +7 +7 1015.5 1012.3 +10.8 +17.8
07 20.05 З 8 н/о н/о +11.6 +9.2 85 +8 +8 1016.0 1012.9
08 20.05 З 8 н/о н/о +11.7 +9.3 85 +8 +8 1017.0 1013.9
09 20.05 З 8 н/о н/о +12.4 +9.0 80 +9 +9 1017.8 1014.6
10 20.05 З 7 н/о н/о +13.0 +9.1 77 +10 +10 1018.6 1015.5
11 20.05 З 7 н/о н/о +13.6 +8.7 72 +11 +11 1019.3 1016.2
12 20.05 З 8 н/о н/о +14.2 +8.3 68 +12 +12 1019.9 1016.7
13 20.05 З 6 н/о н/о +14.3 +9.0 70 +12 +12 1020.5 1017.4
14 20.05 З 8 н/о н/о +14.5 +8.6 68 +12 +12 1021.0 1017.8
15 20.05 З 7 н/о н/о +15.1 +8.2 63 +13 +13 1021.6 1018.5
16 20.05 З 7 н/о н/о +15.1 +7.2 59 +13 +13 1022.1 1018.9
17 20.05 З 7 н/о н/о +15.1 +7.1 59 +13 +13 1022.4 1019.3
18 20.05 З 6 н/о н/о +15.1 +7.0 58 +14 +14 1023.0 1019.9 +10.8 +15.5
19 20.05 З 5 н/о н/о +15.0 +6.5 57 +14 +14 1023.4 1020.2
20 20.05 З 4 н/о н/о +14.6 +7.7 63 +13 +13 1024.0 1020.9
21 20.05 СЗ 3 н/о н/о +13.6 +8.3 70 +13 +13 1024.4 1021.3
22 20.05 З 4 н/о н/о +12.8 +8.7 76 +11 +11 1024.8 1021.7
23 20.05 З 4 н/о н/о +12.6 +8.4 76 +11 +11 1025.3 1022.1
00 21.05 З 3 н/о н/о +12.2 +8.6 79 +11 +11 1025.5 1022.4
01 21.05 З 3 н/о н/о +12.2 +8.2 77 +11 +11 1025.6 1022.4
02 21.05 ЮЗ 3 н/о н/о +11.8 +8.2 79 +10 +10 1025.7 1022.5
03 21.05 З 3 н/о н/о +11.5 +8.1 80 +10 +10 1025.8 1022.6
04 21.05 ЮЗ 4 н/о н/о +10.7 +8.2 85 +8 +8 1026.0 1022.8
05 21.05 ЮЗ 4 н/о н/о +10.8 +7.3 79 +8 +8 1026.1 1022.9
06 21.05 Ю 3 н/о н/о +11.3 +8.7 84 +9 +9 1026.4 1023.2 +10.5 +15.5
07 21.05 ЮЗ 3 н/о н/о +13.6 +9.0 74 +12 +12 1026.6 1023.5
08 21.05 ЮЗ 2 н/о н/о +14.7 +9.0 69 +14 +14 1027.0 1023.9
09 21.05 ЮЗ 1 н/о н/о +16.3 +9.6 65 +17 +17 1027.1 1024.0
10 21.05 штиль 0 н/о н/о +18.5 +9.3 55 +19 +19 1027.2 1024.1
11 21.05 З 1 н/о н/о +18.6 +7.8 49 +20 +20 1027.0 1023.9
12 21.05 ЮЗ 1 н/о н/о +17.9 +8.1 53 +19 +19 1026.9 1023.7
13 21.05 З 7 н/о н/о +16.9 +7.0 52 +16 +16 1026.7 1023.5
14 21.05 З 8 н/о н/о +17.1 +7.5 53 +16 +16 1026.6 1023.4
15 21.05 З 8 н/о н/о +17.0 +6.4 50 +16 +16 1026.3 1023.2
16 21.05 З 7 н/о н/о +16.9 +5.9 48 +16 +16 1026.0 1022.9
17 21.05 З 5 н/о н/о +16.4 +6.0 50 +16 +16 1025.8 1022.7
18 21.05 З 6 н/о н/о +16.4 +5.5 48 +15 +15 1025.5 1022.4 +10.7 +19.7
19 21.05 З 5 н/о н/о +15.4 +7.1 58 +14 +14 1025.3 1022.2
20 21.05 З 5 н/о н/о +15.2 +6.3 55 +14 +14 1025.4 1022.2
21 21.05 З 3 н/о н/о +14.3 +7.8 65 +13 +13 1025.3 1022.1
22 21.05 З 3 н/о н/о +14.0 +7.4 64 +13 +13 1025.2 1022.1
23 21.05 З 2 н/о н/о +13.4 +7.6 68 +13 +13 1025.1 1021.9
00 22.05 З 3 н/о н/о +12.8 +7.7 71 +12 +12 1025.0 1021.8
01 22.05 З 4 н/о н/о +12.3 +9.0 80 +10 +10 1024.6 1021.5
02 22.05 СЗ 3 н/о н/о +11.7 +9.2 85 +10 +10 1024.4 1021.2
03 22.05 С 2 н/о н/о +11.6 +9.9 89 +10 +10 1024.3 1021.1
04 22.05 В 1 н/о н/о +12.2 +10.3 88 +12 +12 1024.2 1021.0
05 22.05 Ю 2 н/о н/о +11.4 +9.6 89 +10 +10 1024.0 1020.9
06 22.05 Ю 1 н/о н/о +12.5 +10.3 86 +12 +12 1023.7 1020.5 +11.1 +16.8
07 22.05 В 1 н/о н/о +12.9 +9.8 81 +13 +13 1023.5 1020.3
08 22.05 В 2 н/о н/о +13.0 +9.9 81 +12 +12 1023.3 1020.1
09 22.05 СВ 3 н/о н/о +13.4 +10.3 81 +12 +12 1023.0 1019.9
10 22.05 СВ 4 н/о н/о +13.4 +10.5 83 +12 +12 1022.7 1019.5
11 22.05 СВ 4 н/о н/о +13.5 +10.5 82 +12 +12 1022.3 1019.2
12 22.05 СВ 5 н/о н/о +13.6 +9.9 78 +12 +12 1021.9 1018.8
13 22.05 В 5 н/о н/о +13.9 +9.1 73
14 22.05 В 4 н/о н/о +14.1 +9.5 74 +13 +13 1021.0 1017.8
15 22.05 В 5 н/о н/о +14.4 +10.0 75 +13 +13 1020.3 1017.2
16 22.05 В 4 н/о н/о +14.6 +10.1 74 +13 +13 1020.0 1016.8
17 22.05 В 5 н/о н/о +15.8 +5.9 52 +15 +15 1019.3 1016.2
18 22.05 В 4 н/о н/о +16.2 +6.3 52 +16 +16 1019.0 1015.9 +11.3 +16.2
19 22.05 В 4 н/о н/о +16.2 +7.2 55 +16 +16 1018.6 1015.5
20 22.05 ЮВ 4 н/о н/о +16.1 +6.5 53 +15 +15 1018.5 1015.4
21 22.05 ЮВ 4 н/о н/о +16.2 +8.1 59 +16 +16 1018.3 1015.2
22 22.05 ЮВ 5 н/о н/о +14.9 +8.2 64 +14 +14 1017.8 1014.7
23 22.05 Ю 5 н/о н/о +14.3 +9.2 71 +13 +13 1017.4 1014.3
00 23.05 Ю 6 н/о н/о +14.7 +8.2 65 +13 +13 1016.8 1013.7
01 23.05 ЮВ 7 н/о н/о +14.9 +7.7 62 +13 +13 1016.3 1013.2
02 23.05 ЮВ 4 н/о н/о +13.8 +8.4 70 +12 +12 1016.0 1012.9
03 23.05 Ю 4 н/о н/о +13.5 +8.5 72 +12 +12 1015.5 1012.3
04 23.05 Ю 5 н/о н/о +13.5 +8.8 73 +12 +12 1015.1 1012.0
05 23.05 Ю 7 н/о н/о +13.9 +9.0 72 +12 +12 1015.0 1011.9
06 23.05 Ю 5 н/о н/о +14.1 +9.5 74 +12 +12 1015.4 1012.3 +13.4 +16.4
07 23.05 Ю 6 н/о н/о +15.6 +9.7 68 +14 +14 1014.8 1011.7
08 23.05 Ю 3 н/о н/о +17.0 +9.4 61 +17 +17 1014.9 1011.9
09 23.05 Ю 4 н/о н/о +18.7 +9.1 54 +19 +19 1014.4 1011.4
10 23.05 Ю 2 н/о н/о +19.1 +10.0 56 +20 +20 1014.2 1011.1
11 23.05 Ю 3 н/о н/о +20.5 +8.4 46 +22 +22 комфорт 1013.8 1010.7
12 23.05 В 3 н/о н/о +20.7 +9.4 48 +23 +23 комфорт 1013.4 1010.4
13 23.05 В 5 н/о н/о +20.1 +10.8 55 +21 +21 комфорт 1012.7 1009.7
14 23.05 СЗ 4 н/о н/о +19.5 +11.3 59 +21 +21 комфорт 1012.9 1009.8
15 23.05 З 2 н/о н/о +19.7 +11.8 60 +22 +22 комфорт 1013.1 1010.0
16 23.05 З 10 н/о н/о +18.9 +9.0 53 +19 +19 1013.2 1010.1
17 23.05 З 11 н/о н/о +17.3 +11.4 68 +16 +16 1013.8 1010.8
18 23.05 З 13
{15}
н/о н/о +14.8 +11.6 81 +12 +12 1014.6 1011.5 +13.9 +21.3
19 23.05 З 13
{16}
н/о н/о +12.8 +9.3 79 +9 +9 1015.4 1012.3
20 23.05 З 12
{15}
н/о н/о +12.1 +8.8 80 +8 +8 1016.2 1013.0
21 23.05 З 12
{16}
н/о н/о +11.9 +8.3 79 +8 +8 1016.8 1013.6
22 23.05 З 13
{16}
н/о н/о +11.8 +7.5 75 +8 +8 1017.0 1013.8
23 23.05 З 12
{16}
н/о н/о +11.8 +7.7 76 +8 +8 1017.3 1014.1
00 24.05 З 12
{16}
н/о н/о +11.6 +7.4 75 +7 +7 1017.2 1014.0
01 24.05 З 12
{14}
н/о н/о +11.4 +7.3 76 +7 +7 1017.2 1014.0
02 24.05 З 12
{14}
н/о н/о +11.3 +7.2 76 +7 +7 1017.4 1014.3
03 24.05 З 11
{15}
н/о н/о +11.3 +7.5 77 +7 +7 1017.4 1014.2
04 24.05 СЗ 9
{13}
н/о н/о +11.2 +6.8 74 +8 +8 1017.8 1014.7
05 24.05 СЗ 10
{15}
н/о н/о +11.2 +6.6 73 +7 +7 1018.1 1014.9
06 24.05 З 10
{15}
н/о н/о +11.2 +6.8 74 +7 +7 1018.3 1015.1 +11.1 +17.4
07 24.05 СЗ 12
{14}
н/о н/о +12.1 +6.8 70 +8 +8 1018.4 1015.3
08 24.05 СЗ 10
{15}
н/о н/о +13.2 +7.3 67 +10 +10 1019.1 1015.9
09 24.05 СЗ 11
{15}
н/о н/о +13.8 +6.7 62 +11 +11 1019.0 1015.8
10 24.05 СЗ 10
{13}
н/о н/о +15.1 +6.4 56 +13 +13 1019.3 1016.2
11 24.05 СЗ 12
{14}
н/о н/о +15.4 +6.3 55 +13 +13 1019.3 1016.2
12 24.05 СЗ 9
{15}
н/о н/о +16.0 +7.5 57 +14 +14 1019.5 1016.4
13 24.05 З 10
{13}
н/о н/о +15.3 +7.1 58
15 24.05 З 9
{13}
н/о н/о +15.4 +9.0 66 +13 +13 1019.8 1016.7
16 24.05 З 10 н/о н/о +15.7 +14 +14 1019.8 1020.0
17 24.05 З 10 н/о н/о +15.1 +9.3 68 +13 +13 1020.0 1016.9
18 24.05 З 10-11
{11}
н/о н/о +14.7 +9.4 71 +12 +12 1020.2 1017.0 +11.2 +16.2
20 24.05 З 8 н/о н/о +13.7 +10.2 79 +11 +11 1020.7 1017.5
19 24.05 З 9 н/о н/о +14.3 +10.1 76 +12 +12 1020.4 1017.3

 

Местоположение метеостанции Leuchtturm Kiel (Германия): широта 54.50 долгота 10.28 высота над уровнем моря 21 м.

В архиве по умолчанию представлена погода в Leuchtturm Kiel за последнюю неделю. Архивные данные за месяц целиком и за предыдущие месяцы, начиная с января 2011 года, Вы можете получить, выбрав интересующий диапазон дат из раскрывающегося списка и нажав кнопку "Ввод!".

Внимание! Время в таблицах - всемирное. Для получения местного времени необходимо прибавить поправку, которая в Leuchtturm Kiel равна 1 ч.

Смотрите также архив погоды в соседних городах и на ближайших метеорологических станциях:

Погода в Kiel-Holtenau (Германия) (16 км)
Погода в Olpenitz (Германия) (25 км)
Погода в Doernick (Германия) (37 км)
Погода в Kegnaes (Дания) (43 км)
Погода в Schleswig (Германия) (47 км)
Погода в Schleswig Airport (Германия) (49 км)
Погода в Westermarkelsdorf (Германия) (51 км)
Погода в Hohn (Германия) (53 км)
Погода в Langoe (Дания) (58 км)
Погода в Taasinge (Дания) (61 км)

Пояснения к столбцам:

Ветер - указаны скорость ветра в м/с - средняя за 10 мин, порывы в срок и между сроками (в фигурных скобках) и направление, откуда дует ветер: С - северный, СВ - северо-восточный, В - восточный, ЮВ - юго-восточный, Ю - южный, ЮЗ - юго-западный, З - западный, СЗ - северо-западный.
Видимость - горизонтальная дальность видимости в метрах или километрах. При видимости от 1 до 10 км при отсутствии осадков обычно наблюдается дымка, при ухудшении видимости до 1 км и менее - туман. В сухую погоду видимость может ухудшаться дымом, пылью или мглою.
Явления - указаны атмосферные явления, наблюдавшиеся в срок или в последний час перед сроком; фигурными скобками обозначены явления, наблюдавшиеся между сроками (за 1-3 часа до срока); квадратными скобками обозначены град или гололедные отложения с указанием их диаметра в мм.
Облачность - указаны через наклонную черту общая и нижняя облачность в баллах и высота нижней границы облаков в метрах; квадратными скобками обозначены формы облаков: Ci - перистые, Cs - перисто-слоистые, Cc - перисто-кучевые, Ac - высококучевые, As - высокослоистые, Sc - слоисто-кучевые, Ns - слоисто-дождевые, Cu - кучевые, Cb - кучево-дождевые. Подробнее классификацию облаков см. в Атласе облаков (PDF).
T - Температура воздуха - температура, измеренная на высоте 2 м над землей.
Td - Температура точки росы - температура, при понижении до которой содержащийся в воздухе водяной пар достигнет насыщения.
f - Относительная влажность воздуха - влажноcть воздуха, измеренная на высоте 2 м над землей.
Te - Эффективная температура - температура, которую ощущает одетый по сезону человек в тени. Характеристика душности погоды. При расчете учитывается влияние влажности воздуха и скорости ветра на теплоощущения человека.
Tes - Эффективная температура на солнце - температура, которую ощущает человек, с поправкой на солнечный нагрев. Характеристика знойности погоды. Зависит от высоты солнца над горизонтом, облачности и скорости ветра. Ночью, в пасмурную погоду, а также при ветре 12 м/с и более поправка равна нулю.
P - Атмосферное давление - приведенное к уровню моря атмосферное давление.
Po - Атмосферное давление - измеренное на уровне метеостанции атмосферное давление.
Tmin - Минимальная температура - минимум температуры воздуха на высоте 2 м над землей.
Tmax - Максимальная температура - максимум температуры воздуха на высоте 2 м над землей.
R - Количество осадков - Количество выпавших осадков за период времени, мм. При наведении курсора мыши на число - период времени, за который выпало указанное количество осадков.
R24 - Количество осадков - Количество выпавших осадков за 24 часа, мм.
S - Снежный покров - Высота снежного покрова, см. При наведении курсора мыши на число - состояние снежного покрова и степень покрытия местности в баллах.